Location: Aultman
(40.9284°N, 81.4173°W)
Time: 15:13:28
(UTC+00:00)

Landsat 5 - Pass Details

Date: 24 January 2021
Orbit: 528 x 654 km, 98.2° (Epoch: 01 March)

Event Time Altitude Azimuth Distance (km) Brightness Sun altitude
Rises 22:54:04 0° 8° (N) 2,717 6.6 -4.4°
Reaches altitude 10° 22:56:15 10° 4° (N) 1,806 5.7 -4.8°
Maximum altitude 23:00:02 54° 287° (WNW) 655 4.1 -5.5°
Drops below altitude 10° 23:03:44 10° 210° (SSW) 1,767 6.7 -6.1°
Sets 23:05:51 0° 205° (SSW) 2,651 7.6 -6.5°
